STARLINK-32609, 61929

Orbit data source: Space-Track

STARLINK-32609, 61929 is a payload satellite owned by SpaceX/Seattle (US) in LEO that was launched on Mon, 11 Nov 2024 UTC via an FALCON 9 launch vehicle from the Air Force Eastern Test Range (AFETR). Payload-class satellites include a variety of spacecraft equipped with specific instruments for various scientific and technological missions. These include communications satellites like Starlink; space stations such as the ISS; scientific satellites like the Hubble; Earth observation satellites from companies like Planet Labs, Umbra, and HawkEye 360; GPS; miniature CubeSats for education and research; and military/defense satellites.

Loading next visibility...
Identifier
61929, 2024-207T
Orbit
LEO
Country
Flag of USUS
Related business
Manufacturer
SpaceX/Seattle
Mission
Operational Commercial Communications
Bus & Motor
STARLINK V2M, Unknown motor
Mass
730 kg wet, ~700 kg dry
Launch date (UTC)
2024-11-11 (2 years ago)
Launch vehicle
FALCON 9
Launch site
Air Force Eastern Test Range (AFETR)
Object type
Payload
Rocket body
Debris
Shape & HBR
Box + 2 Pan, 17.7 m
Radar Cross Section
33.884 m², Large (>1 m²)

Expand to show TLE details & history
Last TLE update: 1 day ago

TLE from 1 day ago
0 STARLINK-32609
1 61929U 24207T   26206.39628622  .00014301  00000-0  52826-3 0  9991
2 61929  42.9986 223.9493 0001453 266.4587  93.6098 15.27575884 95786
Epoch: 2026-07-25T09:30Z
TLE epoch observation values (Epoch: 2026-07-25T09:30:39.129Z)
Latitude
-0.00005°
Longitude
138.17705°
Altitude
482.9 km
Speed
7.626 km/s
True Right ascension
14h 55m 47s
True Declination
0° 00' 00"
Sunlit
Object was in daylight at epoch
Visualization orbit readout
Latitude
Unknown
Longitude
Unknown
Altitude
Unknown
Speed
Unknown
Apparent Right ascension
Unknown
Apparent Declination
Unknown
Sunlit
N/A
Visualization observer readout
Local Sidereal Time
22:17:14
Azimuth
Unknown
Elevation
Unknown
Doppler factor
Unknown
Orbital elements
Apogee altitude
486.004 km
Perigee altitude
484.01 km
Semi-major axis
6,863.144 km
Eccentricity
0.00015
Inclination
42.9986°
RAAN
223.9493°
Arg. of periapsis
266.4587°
True anomaly
93.62642°
Mean anomaly
93.6098°
Eccentric anomaly
93.61811°
Mean motion
3.81732 °/min
Orbital period
94.31 mins
BSTAR
0.00052826
Loading maneuver chart data...
Computing Atmospheric mass density...
Loading historical data...
Loading historical data...
Loading historical data...
Loading historical data...
Loading historical data...
Loading historical data...
Loading historical data...

Documentation

Showing up to 5 results
|